Starlink 34828

operational
NORAD ID: 65353 Int'l Des: 2025-190 Owner: SPXS Country: US Constellation: starlink
LEOCIRCULAR

Über Starlink 34828

Beschreibung wird geladen...

Live-Position

3D-Globus wird geladen...

Nächste Überflüge

Höhenverlauf

Altitude vs Time

uPlot chart will show altitude changes over time

Zweizeiliger Elementsatz

1 65353U 25190C 26062.51454263 .00032433 00000-0 11017-2 0 9992
2 65353 53.1601 196.5844 0001315 90.2142 269.9010 15.30220812 28815
Epoch: 3. März 2026 • Age: 36 hours

Aktueller Status

Höhe 475.9 km
Geschwindigkeit 7.63 km/s
Subsatellitenpunkt 28.55°N, 126.66°W
Startdatum 28. Aug. 2025
Alter 0.5 years
Typ internet

Technische Details

Klassifizierung Payload
Masse 575.00 kg
Trockenmasse 530.00 kg
Gesamtmasse 575.00 kg
Länge 0.30 m
Durchmesser 4.10 m
Spannweite 29.00 m
Form Box + pan
Hersteller SPXS
Bus-Typ Starlink V2MO
Phasenstatus In Orbit
Besitzer/Staat SPXS/US

Große Konstellationen

Loading constellations...